IRIDIUM 33 DEB, 33853

Orbit data source: Space-Track

IRIDIUM 33 DEB, 33853 is space debris in LEO originally from a launch on Sun, 14 Sep 1997 UTC launched from the Tyuratam Missile And Space Complex (TTMTR). The debris from Iridium 33, an American commercial communications satellite, has been tracked extensively since its accidental collision with the defunct Russian satellite Cosmos 2251 in 2009. This event, occurring at high speed in low Earth orbit (LEO), generated thousands of pieces of space debris, significantly increasing the risk of further collisions. The Iridium 33 debris cloud has impacted space traffic management and orbital debris mitigation strategies, making it a subject of ongoing study in space situational awareness.

Loading next visibility...
Identifier
33853, 1997-051W
Orbit
LEO
Country
Flag of USUS
Related business
Manufacturer
Unknown
Mission
Spacecraft
Bus & Motor
Unknown
Mass
Unknown
Launch date (UTC)
1997-09-14 (28 years ago)
Launch vehicle
Unknown
Launch site
Tyuratam Missile And Space Complex (TTMTR)
Object type
Payload
Rocket body
Debris
Shape & HBR
Unknown shape, 0.1 m
Radar Cross Section
Small (<0.1 m²)

Expand to show TLE details & history
Last TLE update: 17 hours ago

TLE from 17 hours ago
0 IRIDIUM 33 DEB
1 33853U 97051W   25348.51095634  .00003527  00000-0  20195-2 0  9995
2 33853  85.9995 349.0348 0206998 230.3282 261.3777 13.99075602853702
Epoch: 2025-12-14T12:15Z
TLE epoch observation values (Epoch: 2025-12-14T12:15:46.627Z)
Latitude
50.55617°
Longitude
-103.18328°
Altitude
930.765 km
Speed
7.378 km/s
True Right ascension
10h 56m 44s
True Declination
50° 23' 29"
Sunlit
Object was in daylight at epoch
Visualization orbit readout
Latitude
Unknown
Longitude
Unknown
Altitude
Unknown
Speed
Unknown
Apparent Right ascension
Unknown
Apparent Declination
Unknown
Sunlit
N/A
Visualization observer readout
Local Sidereal Time
04:14:35
Azimuth
Unknown
Elevation
Unknown
Doppler factor
Unknown
Orbital elements
Apogee altitude
1,044.551 km
Perigee altitude
743.487 km
Semi-major axis
7,272.156 km
Eccentricity
0.0207
Inclination
85.9995°
RAAN
349.0348°
Arg. of periapsis
230.3282°
True anomaly
259.0422°
Mean anomaly
261.3777°
Eccentric anomaly
260.20896°
Mean motion
3.49984 °/min
Orbital period
102.86 mins
BSTAR
0.0020195
Loading maneuver chart data...
Computing Atmospheric mass density...

Documentation

Showing up to 5 results
|